DW5868 Weather Reports


Display with metric or nautical units.
time (UTC)temp
F
wind
direction
speed
MPH
gust
MPH
rain 1hr
in
rain 24hr
in
rain mn
in
humidity
%
barometer
mb
20260902224510 57 267 2.0 14.0 0.00 0.00 0.00 41 1011.5
20260902223019 57 242 5.0 14.0 0.00 0.00 0.00 39 1011.5
20260902220003 57 254 5.0 11.0 0.00 0.00 0.00 39 1011.5
20260902214506 56 243 4.0 17.0 0.00 0.00 0.00 39 1011.6
20260902213002 57 255 7.0 26.0 0.00 0.00 0.00 38 1011.5
20260902210004 56 218 7.0 20.0 0.00 0.00 0.00 39 1011.4
20260902204600 56 253 2.0 32.0 0.00 0.00 0.00 40 1011.3
20260902203059 55 305 5.0 24.0 0.00 0.00 0.00 41 1011.3
20260902200058 55 140 8.0 23.0 0.00 0.00 0.00 39 1011.3
20260902194557 55 281 5.0 12.0 0.00 0.00 0.00 39 1011.4
20260902193058 54 117 5.0 18.0 0.00 0.00 0.00 40 1011.1
20260902190054 55 276 6.0 21.0 0.00 0.00 0.00 39 1011.3
20260902184553 55 295 7.0 17.0 0.00 0.00 0.00 37 1011.1
20260902183102 54 278 8.0 19.0 0.00 0.00 0.00 37 1010.9
20260902180057 56 15 4.0 15.0 0.00 0.00 0.00 35 1011.1
20260902174558 56 263 3.0 11.0 0.00 0.00 0.00 35 1011.1
20260902173114 55 276 2.0 16.0 0.00 0.00 0.00 37 1010.8
20260902170040 51 297 3.0 15.0 0.00 0.00 0.00 42 1010.9
20260902164539 50 302 7.0 16.0 0.00 0.00 0.00 41 1010.7
20260902163038 50 275 3.0 15.0 0.00 0.00 0.00 42 1010.8
20260902160049 45 221 8.0 21.0 0.00 0.00 0.00 45 1010.8
20260902154542 46 289 8.0 27.0 0.00 0.00 0.00 43 1010.7
20260902153038 46 275 5.0 18.0 0.00 0.00 0.00 43 1010.4
20260902150028 44 261 10.0 20.0 0.00 0.00 0.00 44 1009.5
20260902144528 44 304 5.0 26.0 0.00 0.00 0.00 44 1009.5
20260902143027 43 296 9.0 19.0 0.00 0.00 0.00 45 1009.1
20260902140025 42 275 6.0 11.0 0.00 0.00 0.00 1008.5
20260902134521 0 0.0 0.0 0.00 0.00 0.00 1008.6
20260902133018 0 0.0 0.0 0.00 0.00 0.00 1008.5
20260902130010 0 0.0 0.0 0.00 0.00 0.00 1008.4
20260902124506 0 0.0 0.0 0.00 0.00 0.00 1008.5
20260902123006 0 0.0 0.0 0.00 0.00 0.00 1008.9
20260902121657 0 0.0 0.0 0.00 0.00 0.00 1009.0
20260902120055 0 0.0 0.0 0.00 0.00 0.00 1009.3
20260902114552 41 272 3.0 22.0 0.00 0.00 0.00 60 1009.2
20260902113049 42 214 5.0 25.0 0.00 0.00 0.00 59 1008.7
20260902111646 43 261 6.0 22.0 0.00 0.00 0.00 54 1008.5
20260902110055 43 269 8.0 26.0 0.00 0.00 0.00 51 1008.2
20260902104542 43 211 7.0 27.0 0.00 0.00 0.00 47 1008.1
20260902103040 43 303 6.0 16.0 0.00 0.00 0.00 47 1007.9
20260902101639 43 256 4.0 18.0 0.00 0.00 0.00 49 1008.2
20260902100047 44 269 7.0 27.0 0.00 0.00 0.00 48 1008.3
20260902094548 44 272 4.0 16.0 0.00 0.00 0.00 46 1008.2
20260902093043 45 267 7.0 30.0 0.00 0.00 0.00 43 1008.0
20260902090039 46 272 6.0 21.0 0.00 0.00 0.00 40 1008.1
20260902084530 46 226 8.0 30.0 0.00 0.00 0.00 38 1008.3
20260902083029 45 281 8.0 33.0 0.00 0.00 0.00 41 1008.6
20260902081629 45 257 5.0 16.0 0.00 0.00 0.00 43 1008.3
20260902080029 45 254 7.0 25.0 0.00 0.00 0.00 40 1008.3
20260902074525 44 286 4.0 20.0 0.00 0.00 0.00 42 1008.0
20260902073022 44 202 7.0 30.0 0.00 0.00 0.00 48 1008.3
20260902071621 45 292 10.0 25.0 0.00 0.00 0.00 40 1007.7
20260902070023 45 246 10.0 24.0 0.00 0.00 0.00 44 1007.8
20260902064533 45 261 4.0 22.0 0.00 0.00 0.00 46 1007.9
20260902063017 45 284 6.0 24.0 0.00 0.00 0.00 48 1008.0
20260902061631 45 173 8.0 27.0 0.00 0.00 0.00 47 1007.7
20260902060014 45 280 9.0 26.0 0.00 0.00 0.00 48 1007.8
20260902054511 45 292 9.0 39.0 0.00 0.00 0.00 48 1007.5
20260902053008 47 23 9.0 25.0 0.00 0.00 0.00 40 1007.2
20260902051615 46 279 9.0 26.0 0.00 0.00 0.00 49 1007.7
20260902050008 46 194 9.0 22.0 0.00 0.00 0.00 50 1007.5
20260902044509 48 277 5.0 23.0 0.00 0.00 0.00 43 1007.0
20260902043008 48 269 6.0 21.0 0.00 0.00 0.00 41 1007.1
20260902041605 46 284 5.0 21.0 0.00 0.00 0.00 52 1007.1
20260902040001 47 289 9.0 30.0 0.00 0.00 0.00 48 1007.1
20260902034606 46 19 7.0 22.0 0.00 0.00 0.00 56 1006.8
20260902033100 47 277 14.0 34.0 0.00 0.00 0.00 55 1006.9
20260902031558 47 282 6.0 30.0 0.00 0.00 0.00 54 1006.3
20260902030058 47 198 6.0 20.0 0.00 0.00 0.00 54 1006.4
20260902024559 47 246 8.0 23.0 0.00 0.00 0.00 53 1006.3
20260902023058 48 227 6.0 18.0 0.00 0.00 0.00 51 1006.2
20260902021619 49 237 5.0 16.0 0.00 0.00 0.00 49 1006.3
20260902014610 51 286 5.0 17.0 0.00 0.00 0.00 45 1006.1
20260902013100 52 150 5.0 13.0 0.00 0.00 0.00 43 1006.0
20260902011603 54 270 6.0 16.0 0.00 0.00 0.00 41 1005.9
20260902010058 55 259 3.0 17.0 0.00 0.00 0.00 40 1006.3
20260902004557 56 240 7.0 18.0 0.00 0.00 0.00 38 1006.3
20260902003057 56 268 6.0 17.0 0.00 0.00 0.00 37 1006.3
20260902001556 56 295 10.0 20.0 0.00 0.00 0.00 37 1006.5
20260901234557 57 229 4.0 28.0 0.00 0.00 0.00 37 1006.5
20260901233107 57 246 8.0 20.0 0.00 0.00 0.00 37 1006.4
20260901231556 58 279 12.0 27.0 0.00 0.00 0.00 35 1006.5
20260901230058 58 281 10.0 22.0 0.00 0.00 0.00 35 1006.4